Zurück zum Katalog

STARLINK-6175

AktivKommunikationVLEO
NORAD 56882·PAYLOAD·🇺🇸 United States

Gestartet Jun 12, 2023 von Cape Canaveral Space Force Station

Loading…

Nächste Überflüge (nächste 24 Stunden)

TLE

AktuellSource: CelesTrak SupGP

Epoche: Sep 15, 2026, 01:36 UTC

1 56882C 23083G   26258.06715278  .00031032  00000+0  11238-2 0  2587
2 56882  43.0022  95.5931 0001337 271.3343 117.5554 15.27567281    14

Verfolge STARLINK-6175 in Echtzeit mit AllMySat

Download on the App Store